Location: Grieser Field
(39.7333°N, 81.7975°W)
Time: 10:15:16
(UTC-04:00)

HST - Visible Passes

Search period start: 01 October 2014 00:00
Search period end: 11 October 2014 00:00
Orbit: 547 x 551 km, 28.5° (Epoch: 30 September)

Date Brightness Start Highest point End Pass type
(mag) Time Alt. Az. Time Alt. Az. Time Alt. Az.
06 Oct 3.4 06:01:14 10° S 06:02:16 11° SSE 06:03:18 10° SSE visible
07 Oct 3.2 05:53:30 11° S 05:54:58 13° SSE 05:56:49 10° SE visible
08 Oct 3.0 05:46:53 14° S 05:47:41 14° S 05:49:57 10° SE visible
09 Oct 2.9 05:40:13 16° S 05:40:23 16° S 05:42:55 10° SE visible
10 Oct 2.9 05:33:32 16° SSE 05:33:32 16° SSE 05:35:46 10° SE visible
